Weather in Springfield

United States     39°48′00″N   89°39′23″W
temp.,
°C
wind,
m/s
gust,
m/s
humid.,
%
clouds,
%
prec.,
mm/h
press.,
hPa
HPBL,
m
16 may, sun
sun1601:00+12s3685100 0.0 1021139
04:00+12sse2485100 0.0 1020112
07:00+13se2591100 0.1 1021143
10:00+16se4571100 0.0 1022419
13:00+19se5662100 0.0 1020838
16:00+21ese4568100 0.0 1018896
19:00+17e4986100 0.6 1017280
22:00+16ese41196100 3.9 1018409
17 may, mon
mon1701:00+16ese4999100 16.8 1016371
04:00+16se4899100 3.0 1016346
07:00+16ese3699100 3.6 1016291
10:00+16ese4698100 3.0 1017357
13:00+16e5797100 8.4 1017283
16:00+16ese6994100 1.9 1016403
19:00+16e71297100 2.9 1016538
22:00+16ese71397100 2.3 1016617
18 may, tue
tue1801:00+16se71496100 7.3 1015784
04:00+15se51297100 2.7 1014697
07:00+16sse71497100 7.4 1015609
10:00+16sse71397100 6.6 1016518
13:00+16sse51096100 7.3 1017539
16:00+20se578635 0.2 1016624
19:00+20ese598985 0.4 1016346
22:00+18sse61295100 0.0 1017605
19 may, wed
wed1901:00+18sse61496100 1.2 1016659
04:00+17sse41397100 0.3 1016436
07:00+17se61396100 2.0 1018399
10:00+20sse71390100 0.8 1018731
13:00+25s91365100 0.9 10181484
16:00+26s81268100 0.1 10171441
19:00+23s7137494 0.3 1018743
22:00+20sse6158871 0.1 1019529
20 may, thu
thu2001:00+19s5158912 0.1 1019474
04:00+18sse3119299 0.0 1020310
07:00+19sse4119183 0.0 1022348
10:00+24s71170100 0.0 1022861
13:00+23s61175100 1.1 1022636
16:00+26s71064100 0.2 10211488
19:00+24s510776 1.0 1022500
22:00+20s4138921 0.0 1023314